Location: Tauranga
(37.6860°S, 176.1670°E)
Time: 20:15:11
(UTC+13:00)

Cosmos 2322 Rocket - Visible Passes

Search period start: 16 December 2019 00:00
Search period end: 26 December 2019 00:00
Orbit: 832 x 851 km, 71.0° (Epoch: 15 December)

Date Brightness Start Highest point End Pass type
(mag) Time Alt. Az. Time Alt. Az. Time Alt. Az.
16 Dec 2.4 02:46:53 52° NNE 02:47:54 61° ENE 02:53:32 10° SSE visible
16 Dec 3.9 04:28:42 11° W 04:32:23 19° SW 04:36:26 10° S visible
17 Dec 2.4 02:32:14 54° NE 02:32:53 57° ENE 02:38:29 10° SSE visible
17 Dec 3.9 04:14:03 13° W 04:17:19 20° SW 04:21:30 10° S visible
18 Dec 2.5 02:17:34 54° ENE 02:17:52 54° ENE 02:23:26 10° SSE visible
18 Dec 3.9 03:59:22 15° W 04:02:15 21° SW 04:06:33 10° S visible
19 Dec 2.6 02:02:51 51° ENE 02:02:51 51° ENE 02:08:22 10° SSE visible
19 Dec 3.8 03:44:39 17° W 03:47:11 22° SW 03:51:36 10° S visible
20 Dec 2.7 01:48:06 48° E 01:48:06 48° E 01:53:19 10° SSE visible
20 Dec 3.8 03:29:54 19° W 03:32:07 24° SW 03:36:39 10° S visible
21 Dec 2.8 01:33:19 44° E 01:33:19 44° E 01:38:15 10° SE visible
21 Dec 3.7 03:15:07 21° W 03:17:03 25° WSW 03:21:41 10° S visible
22 Dec 3.0 01:18:31 41° E 01:18:31 41° E 01:23:11 10° SE visible
22 Dec 3.6 03:00:18 23° W 03:01:59 26° WSW 03:06:43 10° S visible
23 Dec 3.1 01:03:40 38° E 01:03:40 38° E 01:08:06 10° SE visible
23 Dec 3.6 02:45:27 24° W 02:46:56 27° WSW 02:51:45 10° S visible
24 Dec 3.2 00:48:47 35° E 00:48:47 35° E 00:53:02 10° SE visible
24 Dec 3.5 02:30:34 26° W 02:31:52 29° WSW 02:36:47 10° S visible
25 Dec 3.2 00:33:51 33° E 00:33:51 33° E 00:37:57 10° SE visible
25 Dec 3.5 02:15:39 28° W 02:16:49 30° WSW 02:21:48 10° S visible
